Theta_e
322 322 320 320 320 320 321 317 309 307 310 314 316 317 320 325 326 324 323 322 320 320 322 324 322 320 320 320 320 318 317 318 319 319 319 319 319 319 320 319 319 320 320 320 320 320 319 319 319 319 319 320 320 320 320 320 320 321 321 321 322 323 322 320 319 323 325 325 326 326 325 325 323 322 325 323 322 323 320 319 321 317 317 319 313 320 339
320 322 320 320 320 320 321 318 311 307 309 311 314 317 322 325 326 325 323 322 321 319 322 324 322 321 321 320 319 318 317 318 319 319 319 320 319 319 320 320 319 320 320 320 321 320 318 319 320 319 319 320 320 320 320 319 320 321 321 322 321 320 321 321 320 321 324 324 324 324 324 323 323 323 325 325 323 323 323 323 323 318 318 317 316 326 343
316 321 321 320 320 320 321 320 314 307 307 309 312 316 321 324 326 325 322 320 320 321 322 323 323 322 321 320 319 318 318 318 318 319 318 319 319 319 320 321 320 320 320 320 321 320 319 321 322 320 319 320 320 321 320 319 321 321 321 322 320 319 321 322 321 322 325 326 324 323 323 323 323 324 325 326 324 323 322 320 319 319 320 320 323 332 344
313 319 322 320 319 320 321 320 316 309 307 309 311 315 321 325 326 324 321 319 319 320 322 321 321 321 320 319 319 318 318 319 318 317 317 319 319 319 320 320 319 320 320 320 321 321 320 321 322 322 323 323 320 321 321 320 321 321 320 320 320 320 322 322 322 322 325 325 325 327 326 322 321 323 324 326 326 327 325 321 320 322 322 324 331 337 341
311 316 321 321 319 319 321 321 317 310 307 309 312 316 321 323 324 324 322 321 319 319 321 320 320 321 320 319 319 318 318 319 318 316 317 319 319 319 319 319 319 320 321 321 322 322 321 322 321 322 324 323 321 322 322 320 321 321 320 320 321 321 320 321 322 322 324 325 325 327 326 323 322 323 324 326 327 327 327 322 323 327 323 323 334 341 337
310 313 319 321 320 319 320 321 318 311 307 309 315 321 324 322 323 325 322 322 321 319 320 321 320 319 319 319 319 319 319 319 318 317 318 319 318 318 319 320 320 320 320 321 322 323 323 323 323 323 322 322 322 322 322 321 322 322 321 322 322 321 319 321 321 321 322 324 324 325 325 324 325 324 324 326 326 326 326 324 326 328 324 323 331 338 338
310 312 316 320 320 319 320 321 319 313 307 309 317 324 327 324 324 327 325 323 323 321 321 321 320 319 320 320 319 318 318 318 319 319 318 318 318 318 320 321 320 320 320 320 321 323 322 322 324 324 322 322 322 323 323 324 324 322 321 322 323 322 320 321 321 320 322 323 323 325 325 324 324 325 325 325 326 327 326 326 329 328 327 328 329 336 342
311 311 314 319 320 319 320 321 320 313 308 313 322 327 328 327 328 329 329 327 323 323 323 321 321 320 320 320 319 318 319 319 320 319 317 318 321 319 318 321 320 319 321 320 320 323 323 322 324 324 322 322 322 323 323 323 323 322 322 322 323 322 320 322 322 319 320 323 324 324 325 324 323 323 325 325 325 326 325 329 333 331 332 333 330 335 344
311 310 312 317 320 320 319 321 321 314 308 315 326 330 327 326 328 329 328 327 324 322 323 322 320 320 319 319 320 319 319 319 319 319 317 317 321 320 319 320 320 319 320 320 321 322 322 321 322 322 321 321 321 322 322 321 320 321 321 323 323 322 321 323 322 318 318 321 322 323 324 324 322 322 324 326 326 324 325 331 336 335 335 335 331 333 341
311 311 311 315 320 321 320 321 321 315 308 311 320 329 330 326 327 330 327 326 326 322 322 322 320 320 320 320 321 320 319 320 319 318 319 318 319 320 320 320 320 320 321 321 320 321 320 320 320 319 319 319 319 319 320 320 319 319 320 321 321 323 323 322 321 318 318 320 321 322 321 320 321 323 326 328 328 327 328 333 335 335 336 336 335 336 340
312 312 311 313 319 322 320 321 321 315 311 308 310 322 331 326 325 332 330 325 326 324 322 322 320 320 322 320 321 320 319 320 320 319 321 320 318 318 318 318 319 321 322 322 321 320 318 318 317 317 317 318 318 319 319 319 319 319 319 319 321 323 323 322 322 319 318 320 321 321 319 319 323 327 328 329 330 329 330 332 333 333 334 336 338 339 342
311 312 312 312 318 321 320 321 321 315 311 308 306 317 330 328 325 331 331 325 325 324 322 322 321 320 321 320 321 320 319 320 320 319 320 321 319 318 318 318 318 320 322 322 319 317 317 317 317 317 317 318 318 319 318 318 320 321 320 319 321 322 322 323 323 320 318 320 321 319 320 323 327 329 327 327 329 329 329 332 333 333 333 334 336 338 340
311 312 312 312 316 321 321 321 321 316 311 309 308 311 321 327 327 330 333 328 325 325 323 323 323 321 321 321 321 321 320 320 320 320 319 321 320 318 318 318 318 319 320 319 318 317 318 318 319 318 319 318 318 319 319 318 320 320 320 321 321 320 321 322 322 321 322 321 319 319 322 326 327 327 327 327 327 327 328 330 333 334 333 334 335 337 340
311 312 312 312 314 319 322 320 321 319 311 310 309 306 315 327 328 327 331 331 328 327 325 323 324 322 321 321 321 321 320 320 320 320 319 320 321 319 319 319 317 318 318 317 317 318 318 319 320 320 319 319 319 320 320 319 320 320 319 320 321 320 320 321 320 322 323 321 320 320 321 324 327 328 328 327 327 327 326 328 332 334 333 334 335 336 339
311 311 312 313 313 317 321 321 321 320 313 311 310 306 317 328 325 320 328 333 331 330 328 324 325 324 321 321 321 320 320 320 320 320 320 319 320 320 320 318 318 317 317 317 318 319 319 320 319 318 318 319 320 320 322 320 320 321 320 319 320 320 321 322 320 320 322 322 322 321 319 323 329 330 328 326 326 327 326 327 330 331 331 333 335 337 340
311 311 312 313 313 316 320 321 321 320 316 312 309 308 320 328 322 316 323 329 330 330 327 323 323 323 322 322 321 320 320 320 320 321 321 319 319 320 320 318 318 318 317 317 318 321 322 321 319 317 318 321 321 320 321 320 320 321 320 319 320 320 321 322 319 318 320 321 321 321 323 327 331 330 328 326 326 328 326 325 327 329 329 330 334 337 339
311 311 312 313 313 314 319 321 321 321 317 313 309 310 317 321 316 312 317 325 331 330 327 325 324 322 322 321 320 320 320 321 321 321 321 321 320 321 320 318 318 318 317 319 320 320 321 321 319 318 319 323 323 321 321 320 319 321 323 322 322 321 322 322 318 316 318 318 318 323 328 331 331 328 327 327 326 325 324 324 326 329 330 329 332 336 337
310 310 311 313 313 314 317 320 321 320 318 314 310 309 312 313 311 311 315 325 332 329 325 324 322 322 323 321 321 321 319 320 322 321 321 323 323 322 321 320 320 319 318 320 321 321 321 321 320 319 320 324 324 320 320 320 320 322 324 322 321 321 320 320 319 317 316 315 318 325 329 329 328 327 327 327 325 324 324 325 328 331 331 331 332 335 335
311 310 311 312 313 313 316 320 321 320 318 314 310 311 315 315 312 311 314 323 329 328 325 324 322 322 323 322 321 321 319 320 322 321 321 323 324 322 321 320 321 321 319 319 321 322 320 321 324 322 320 323 324 320 319 320 321 323 324 321 321 321 320 321 320 319 318 316 318 324 328 327 326 326 326 327 327 326 327 328 329 330 331 331 333 335 337
311 310 311 312 313 313 315 319 321 320 318 315 310 311 316 316 311 310 313 320 326 327 325 323 322 321 321 321 320 321 320 321 322 321 321 323 323 322 321 320 320 322 322 321 322 323 321 323 327 324 318 322 325 321 320 321 321 323 323 322 322 322 321 321 322 320 321 321 321 324 326 326 325 326 327 327 328 329 329 329 328 329 330 331 333 335 336
311 310 310 311 312 313 313 317 321 320 318 315 311 310 314 317 315 312 311 314 320 324 324 323 324 322 321 321 320 320 321 321 321 321 320 323 324 323 322 322 321 321 323 323 324 325 324 325 327 324 320 324 325 322 320 321 321 323 323 322 323 322 321 321 323 322 322 323 324 325 327 326 325 326 327 327 327 328 328 328 328 330 331 332 333 334 333
311 310 310 310 310 311 312 315 319 321 319 315 311 309 315 323 324 320 313 310 313 317 319 320 323 323 321 322 322 321 322 322 321 321 321 323 325 323 321 323 324 323 324 325 325 325 324 325 325 322 322 324 324 322 322 321 321 324 323 321 322 325 325 323 324 323 322 323 324 324 325 325 325 326 327 327 326 327 327 328 328 329 330 332 334 333 331
313 312 311 310 309 310 312 314 317 320 320 316 311 309 315 323 324 318 312 310 312 316 317 318 321 322 321 322 322 322 324 322 321 321 321 321 323 323 320 321 323 324 323 324 326 326 325 326 326 324 323 325 325 324 323 322 322 323 324 323 323 325 325 324 324 325 324 324 325 324 324 325 325 325 325 325 325 325 326 327 328 328 328 330 332 333 332
314 313 312 311 309 309 311 314 316 320 320 316 311 310 312 316 317 313 312 316 319 321 320 319 321 322 321 320 321 321 322 321 320 321 320 319 320 322 322 321 322 324 324 323 324 324 324 325 326 324 323 324 324 323 322 323 324 324 325 326 326 324 323 323 323 325 325 324 326 325 324 325 326 326 326 326 325 325 326 326 327 328 328 329 331 332 332
313 312 311 310 309 308 310 313 316 319 320 316 312 310 309 314 318 318 318 320 322 323 322 321 320 320 320 319 320 320 320 319 320 320 319 319 318 320 322 323 322 323 325 325 323 322 321 322 322 322 322 323 323 322 322 323 324 324 324 325 325 324 323 322 322 324 325 326 327 326 324 324 325 325 326 326 325 325 325 325 327 328 328 329 330 330 331
312 312 311 310 309 308 310 312 315 319 320 317 313 310 309 314 319 318 316 320 324 325 324 323 321 320 319 319 319 319 319 319 320 319 319 319 319 319 321 324 323 322 323 323 322 321 320 321 321 321 322 323 323 323 323 324 324 323 323 324 324 323 322 321 322 325 325 326 327 326 325 325 326 325 325 325 325 325 325 325 326 327 328 329 329 328 329
312 311 310 309 310 309 311 313 315 319 320 317 313 310 309 311 313 312 314 321 326 326 322 321 321 320 319 320 320 319 319 320 320 319 319 319 319 319 320 322 323 321 320 320 321 321 321 322 323 322 323 324 324 323 323 324 324 323 322 323 323 323 322 322 323 324 324 325 327 327 326 327 327 326 325 325 325 325 326 325 326 326 326 328 328 329 329
312 311 309 310 311 311 312 314 316 319 319 316 313 311 309 310 311 310 311 316 321 325 325 324 324 323 321 321 321 320 320 320 320 320 320 319 319 320 321 321 322 321 320 320 322 322 321 322 323 322 324 324 323 322 322 322 321 322 322 322 323 324 324 324 324 324 325 325 326 326 326 327 327 326 325 325 325 326 327 326 326 325 325 325 326 327 328
312 311 310 311 312 313 314 315 317 319 318 315 311 310 310 310 310 310 310 312 315 320 324 323 322 323 323 321 320 320 320 320 320 320 320 320 320 321 323 322 322 322 322 323 323 323 323 324 323 324 326 325 323 322 323 323 323 325 325 325 324 324 325 324 324 325 325 325 325 325 325 326 327 327 326 325 324 326 327 326 325 325 325 325 325 326 326
312 311 311 312 314 315 315 316 318 319 317 312 310 311 314 315 313 313 314 316 316 319 322 323 322 322 322 320 319 320 321 320 320 319 320 320 321 322 322 322 322 323 324 324 324 324 324 325 325 325 326 325 323 323 323 324 326 327 326 326 325 324 324 324 324 325 325 326 326 324 324 325 326 326 326 326 325 325 326 326 325 324 323 324 325 325 325
312 311 312 313 314 315 315 316 318 318 315 310 311 316 320 322 321 318 317 315 314 317 321 323 322 321 321 320 320 320 320 320 320 320 319 320 321 322 323 322 322 322 323 323 324 324 324 325 326 327 326 324 323 322 322 323 326 326 326 326 326 325 324 324 324 324 325 325 325 324 322 322 323 323 324 325 325 323 324 325 325 324 322 322 324 325 325
312 312 312 313 314 315 315 317 318 318 314 310 312 318 323 324 323 321 317 312 311 316 320 321 320 321 320 320 321 321 321 321 320 319 319 320 320 322 323 323 323 323 323 324 325 325 325 325 326 327 327 325 324 323 322 323 325 326 326 326 325 324 324 324 324 324 324 324 323 323 321 321 322 323 324 325 324 323 322 323 324 323 322 322 324 324 324
313 313 312 313 314 315 316 317 318 317 315 310 310 315 321 322 321 319 315 312 313 317 320 319 318 319 320 320 321 321 321 321 321 319 319 320 321 322 323 323 324 324 324 324 324 325 325 325 325 327 328 327 325 324 323 323 325 326 325 325 326 325 324 324 324 323 324 323 322 322 322 323 324 324 324 324 323 322 321 320 320 321 321 321 322 323 323
314 314 313 313 315 316 316 317 318 317 316 313 311 313 316 318 318 315 312 312 315 319 320 320 320 319 319 321 321 320 320 321 321 320 320 320 322 323 324 323 324 324 323 322 323 324 325 326 326 326 327 326 325 323 323 323 325 325 324 324 325 325 324 323 323 323 324 323 322 322 323 324 324 323 323 322 322 321 320 319 319 319 319 318 319 320 321
314 313 313 313 315 317 317 317 318 317 315 313 314 315 315 314 315 315 313 314 318 321 320 319 320 320 320 321 322 321 320 321 321 321 321 322 322 323 324 325 324 323 323 323 323 324 326 326 325 325 325 325 325 325 324 324 324 324 324 324 324 324 324 324 323 323 323 323 323 323 323 323 322 322 322 322 321 321 320 319 318 318 317 317 316 318 318
313 313 313 315 317 318 318 318 318 316 315 315 317 318 317 315 315 316 315 315 318 321 321 319 318 318 319 321 323 322 320 320 322 321 321 323 324 323 324 325 325 324 325 325 324 325 326 325 324 324 325 325 325 325 325 325 325 325 324 324 324 324 324 323 323 323 323 323 323 323 323 322 322 322 322 321 320 320 319 318 318 317 317 317 317 317 317
313 314 315 317 318 318 318 319 317 316 317 319 320 319 317 316 315 317 317 316 317 319 320 320 319 318 318 321 324 323 320 319 321 322 322 324 326 325 323 324 326 326 325 325 325 325 325 324 323 324 325 324 324 324 325 325 324 324 323 323 324 324 323 323 322 322 322 323 323 322 322 322 321 321 321 320 320 320 319 319 318 317 317 317 317 317 317
314 315 317 317 318 318 320 320 317 316 318 320 320 318 316 316 317 318 318 318 319 319 319 320 321 320 319 320 323 323 321 320 321 324 325 325 325 326 325 324 325 325 325 325 326 325 325 325 325 324 324 324 324 324 325 324 324 323 323 323 323 324 323 322 322 321 321 322 321 321 321 321 321 320 320 320 319 319 319 319 319 318 317 317 317 317 317
315 316 317 317 318 319 321 321 318 316 316 318 318 318 318 317 318 320 318 317 319 320 319 319 321 321 320 321 323 323 322 322 322 325 326 325 325 326 326 325 324 324 324 325 325 325 325 326 326 324 323 324 324 323 323 323 323 323 323 323 323 323 323 322 322 321 321 320 320 320 320 320 320 320 319 319 319 319 319 319 319 318 318 318 318 318 318
315 317 318 318 319 320 320 320 318 316 316 317 318 320 320 318 317 319 319 317 317 319 318 317 318 319 319 321 322 322 322 323 323 324 325 325 324 325 326 325 324 324 325 325 325 325 325 325 325 323 324 325 325 324 323 323 323 323 323 322 322 322 322 322 321 320 320 320 319 320 320 321 320 320 320 319 319 319 319 319 319 318 319 319 318 318 318
316 317 318 319 320 320 319 317 316 317 317 318 318 318 319 320 318 318 318 318 318 318 318 317 317 317 317 319 321 321 322 322 322 323 325 325 323 323 325 326 325 325 325 326 325 324 324 323 322 323 325 327 326 325 323 322 322 322 322 322 322 321 321 321 321 320 320 321 321 321 322 322 321 321 321 320 320 320 319 319 319 319 318 318 318 317 317
317 318 319 319 320 320 318 317 317 318 319 319 318 318 318 319 319 318 318 318 319 319 318 317 317 317 317 318 320 322 322 322 322 322 324 325 323 323 324 326 325 325 325 325 325 324 323 323 322 323 326 328 327 324 322 321 321 322 321 321 322 322 320 320 320 320 321 322 322 322 322 322 322 322 321 320 320 320 319 319 318 318 318 317 317 316 316
317 318 319 319 320 319 318 317 318 318 318 318 319 319 318 318 319 319 319 319 319 319 319 318 317 318 318 318 319 322 323 322 322 322 324 324 324 324 324 325 325 325 324 324 324 323 323 322 321 323 327 327 325 322 321 321 321 321 322 323 323 323 321 320 321 321 321 322 322 321 321 321 320 320 319 319 318 318 317 317 317 316 316 316 315 315 314
317 317 319 319 319 318 317 318 318 318 318 318 318 319 319 319 319 319 319 319 318 319 320 319 318 318 319 318 318 322 324 323 322 322 324 325 325 325 324 324 325 324 323 323 323 323 322 321 321 324 326 325 323 322 323 322 322 322 324 324 324 323 322 322 321 321 321 321 321 320 319 319 318 318 318 317 317 316 315 315 315 315 315 314 314 313 313
317 317 318 319 318 317 318 319 318 318 319 319 318 318 319 319 318 318 319 319 318 319 321 320 318 319 319 318 319 322 323 323 322 323 324 325 325 325 325 324 323 323 324 323 323 323 322 321 323 326 325 323 322 323 324 323 323 324 325 325 324 324 323 322 322 321 320 320 319 318 318 317 317 317 316 316 315 315 315 314 314 314 313 313 312 312 313
317 318 318 318 318 318 318 318 317 318 319 319 319 319 319 319 318 317 318 318 317 319 320 320 319 320 319 317 318 321 323 322 322 323 324 325 325 324 324 324 323 323 324 323 323 322 321 321 323 326 325 324 324 324 325 325 324 324 325 325 324 323 323 322 321 320 319 318 317 317 317 316 315 315 315 315 314 314 314 314 313 313 312 312 312 313 312
317 318 318 318 318 318 317 317 318 319 319 319 320 319 318 318 318 318 319 320 320 320 321 320 320 322 322 320 320 322 323 323 323 323 323 324 325 324 323 324 324 324 323 323 323 322 322 324 326 327 326 325 325 325 325 326 325 324 324 325 324 323 322 321 320 319 318 317 317 316 315 315 314 314 314 314 314 313 313 312 312 312 312 312 312 312 312
318 318 318 317 318 318 318 318 319 318 318 319 319 319 318 318 318 318 319 321 322 322 323 324 323 324 324 324 323 324 324 325 325 324 323 324 324 324 323 324 324 324 323 323 322 321 323 325 327 326 325 325 325 325 325 325 325 324 324 323 323 322 321 320 319 318 317 316 315 315 314 314 314 313 313 313 312 312 312 312 312 312 312 312 312 312 312
318 318 318 318 318 319 319 319 319 318 319 319 319 319 318 318 319 319 320 321 322 322 323 324 324 324 324 324 323 324 325 325 325 324 324 324 324 323 323 324 324 324 323 322 322 322 324 326 326 325 324 324 324 324 324 324 323 323 322 322 322 321 320 319 318 317 316 315 315 315 314 314 313 313 312 312 312 311 312 311 311 311 311 311 312 312 312
317 318 319 319 318 318 319 319 318 319 319 319 319 319 319 319 320 318 318 321 323 323 323 323 323 324 324 324 323 324 325 325 324 323 324 325 324 324 324 324 324 324 324 322 321 323 325 325 325 324 324 324 324 324 323 323 322 322 321 320 320 320 319 317 316 316 315 314 314 314 313 312 312 312 311 311 311 311 311 311 311 311 311 311 311 312 312
317 318 319 319 319 319 319 319 318 319 319 319 319 319 319 319 320 319 320 322 324 324 323 324 325 324 323 323 323 323 324 324 323 323 324 324 324 323 324 324 324 324 323 322 322 324 324 324 324 324 324 324 323 323 323 322 321 321 320 320 319 318 317 316 315 315 314 314 313 312 311 311 311 311 311 311 311 311 311 312 311 311 311 311 311 311 311
317 318 319 319 319 319 319 319 319 319 319 318 319 319 318 319 321 322 322 323 323 323 323 324 324 323 322 322 323 323 323 324 323 323 324 324 324 323 324 324 324 324 323 321 321 323 323 323 324 324 324 324 324 323 322 322 321 320 319 318 317 316 315 315 314 314 314 313 312 312 311 311 311 311 311 311 312 312 312 312 311 311 311 311 311 311 311
Wind_Speed
17 16 15 16 16 19 20 19 18 15 8 7 9 11 12 12 7 4 7 6 7 10 9 9 9 3 4 3 1 5 3 7 3 2 3 2 0 4 3 1 2 5 2 3 5 3 2 2 3 4 1 1 3 3 5 8 8 7 5 6 10 8 4 3 6 7 7 11 14 15 15 14 13 11 11 10 9 10 9 6 5 6 6 7 7 3 3
16 16 14 14 15 17 19 19 17 16 12 10 12 11 10 15 16 6 8 7 9 11 8 6 7 3 3 3 2 2 3 6 4 6 4 2 2 5 5 2 1 2 1 3 4 2 1 3 4 5 2 3 3 1 5 8 8 5 6 6 8 5 3 3 5 5 5 6 8 9 11 9 7 7 9 11 12 13 11 7 6 7 8 8 5 0 2
16 16 14 13 13 15 17 17 17 15 13 12 14 13 11 16 16 7 6 5 10 12 9 7 10 6 3 3 5 5 5 3 4 7 6 4 5 5 3 3 3 3 2 3 3 2 2 2 3 5 2 2 3 1 3 7 5 9 9 9 8 4 3 4 4 4 3 3 4 6 7 6 5 8 12 13 14 11 9 8 5 4 9 9 4 2 4
16 15 14 13 12 13 14 15 16 15 13 12 13 12 11 12 9 5 8 8 11 13 13 12 11 4 2 3 4 5 5 5 3 6 7 3 4 5 2 1 3 4 3 3 3 3 1 1 3 4 3 1 2 3 4 9 2 8 7 6 6 5 4 5 6 5 4 3 5 9 10 9 8 9 10 8 6 6 7 5 2 2 5 3 6 7 4
16 15 14 12 11 12 13 14 14 14 13 12 12 11 11 10 7 5 4 5 8 12 13 12 8 3 0 2 3 4 4 3 4 5 4 1 4 5 3 3 3 3 4 2 2 4 3 5 6 6 4 4 4 3 5 6 2 2 6 7 5 5 5 6 8 8 7 7 8 8 10 12 10 10 11 12 11 9 9 6 3 3 4 1 9 12 6
15 15 14 12 11 10 12 13 12 12 12 11 11 11 11 9 9 11 7 3 7 7 7 10 8 4 3 1 1 4 6 2 4 5 2 1 4 4 2 4 5 5 4 2 2 3 4 5 7 7 5 5 6 3 8 12 7 5 8 6 3 4 6 7 9 9 9 10 9 7 8 10 11 9 8 8 9 9 8 9 9 6 6 6 4 9 8
15 15 14 12 11 9 11 13 11 11 10 7 8 8 9 10 13 13 10 7 8 5 4 5 9 6 4 1 1 4 6 5 3 1 2 3 2 1 3 3 4 5 4 2 1 3 2 2 2 3 4 5 6 4 7 11 14 8 4 4 2 2 4 7 10 10 8 10 9 7 7 9 10 8 6 7 8 9 8 9 9 9 10 11 9 4 8
14 15 13 12 10 9 10 11 11 11 7 4 6 10 10 9 11 12 15 13 12 12 5 3 6 3 3 2 4 5 6 5 0 2 5 4 2 1 7 4 2 5 3 1 3 3 3 1 1 2 3 2 2 1 0 6 10 6 4 3 1 0 3 5 7 8 8 9 10 9 8 6 7 8 8 9 9 6 7 7 8 10 10 11 12 3 5
14 14 13 12 9 8 9 10 10 11 7 3 7 9 9 10 10 11 13 9 9 12 7 4 5 3 4 5 5 4 6 4 1 3 3 5 4 3 5 3 1 3 3 3 4 3 3 3 3 1 5 4 1 3 2 3 5 6 4 3 1 2 4 4 5 6 6 7 9 9 7 5 7 9 6 9 11 8 3 4 10 11 12 11 10 4 2
14 14 13 12 9 7 8 9 9 9 7 6 8 8 12 13 10 9 10 8 8 9 6 6 6 4 4 5 6 5 7 4 1 1 2 6 8 4 6 5 1 4 3 1 2 4 3 6 6 5 7 7 5 6 5 5 5 5 5 4 3 4 4 4 4 5 5 8 8 6 6 7 6 5 4 9 11 9 2 8 12 12 13 9 4 4 4
13 13 13 11 9 7 7 8 8 7 6 7 6 7 13 14 11 10 9 8 9 9 8 7 6 3 6 4 6 5 6 3 3 2 2 3 4 2 3 5 4 3 2 4 4 4 6 8 8 8 8 8 9 8 7 7 4 1 3 5 3 4 5 4 3 4 5 6 5 4 6 5 2 3 6 7 9 10 6 6 9 8 9 7 4 6 7
12 12 13 11 9 7 7 7 7 6 6 6 5 4 8 11 11 10 8 7 9 10 7 6 8 7 6 7 7 5 7 3 5 5 5 3 2 2 3 4 3 1 4 4 4 5 6 7 7 8 8 8 8 7 7 8 4 3 5 5 3 4 5 4 3 4 5 3 4 6 5 3 1 1 4 5 4 6 4 5 7 7 7 8 8 7 7
12 12 13 11 9 7 7 7 7 6 5 5 5 5 6 10 10 9 8 7 8 10 8 9 15 13 10 9 8 7 7 4 5 3 7 6 0 3 5 4 1 3 3 3 5 5 6 6 5 5 6 6 6 6 8 9 6 4 5 3 3 5 5 4 3 3 3 3 6 5 1 2 4 2 6 7 5 6 4 4 7 8 6 7 8 7 7
13 13 12 11 9 7 7 7 7 7 6 5 6 5 4 8 9 8 7 5 6 11 12 11 13 12 9 9 9 7 7 4 4 2 8 6 5 5 3 3 3 4 2 3 3 3 5 4 3 4 4 4 4 2 4 6 5 5 5 1 1 4 5 4 2 1 1 4 5 2 1 2 1 4 6 7 6 6 5 1 3 6 6 4 5 7 6
14 13 13 12 10 8 7 8 7 7 7 6 6 5 3 6 9 7 7 6 6 10 11 10 13 14 9 9 9 8 5 4 4 5 5 4 6 4 2 1 4 3 3 3 3 3 4 4 4 5 3 3 2 1 1 5 4 5 4 3 3 4 3 3 3 1 1 3 4 4 3 3 1 5 6 8 8 6 5 2 1 6 10 8 5 6 6
14 14 13 13 12 9 8 9 8 8 8 6 6 5 2 4 8 6 6 7 5 6 9 10 13 16 11 10 11 10 7 3 3 4 4 4 7 5 3 2 3 3 5 5 4 4 5 4 5 5 2 1 1 1 1 4 3 5 5 4 4 5 4 3 4 4 3 2 2 4 3 1 1 5 7 10 11 10 7 3 0 7 14 13 9 7 7
14 14 14 13 13 11 9 9 9 8 9 7 7 6 4 5 7 5 5 7 7 10 14 13 13 13 10 7 8 9 7 3 2 3 4 4 6 5 5 5 4 4 6 5 4 4 5 5 4 4 2 2 1 1 1 3 4 2 2 3 4 4 4 5 5 5 4 3 2 0 1 1 3 7 8 10 13 11 7 4 1 9 15 15 13 13 14
14 14 14 13 13 12 10 10 10 9 9 8 7 7 6 6 7 5 5 7 8 11 16 15 13 13 10 7 7 8 9 6 4 4 5 4 6 7 5 5 6 5 4 4 4 4 5 5 4 4 1 3 1 1 1 2 2 1 2 4 4 4 4 4 5 4 4 4 2 3 2 1 5 7 9 12 12 7 4 2 2 9 13 13 14 16 19
14 14 13 12 12 12 10 11 11 10 9 9 8 7 5 6 7 5 5 8 8 10 15 14 12 14 13 13 14 9 5 5 3 5 4 2 4 6 4 2 4 4 4 5 5 4 5 4 3 4 2 2 2 2 2 3 2 1 3 4 3 4 4 3 4 4 4 4 1 4 4 2 8 7 7 13 10 3 0 2 3 7 10 11 14 17 17
15 14 13 12 12 12 11 11 12 11 10 9 8 7 5 6 7 6 6 8 9 12 15 12 10 13 14 14 15 9 2 3 5 6 5 1 3 7 5 3 3 4 4 5 4 3 4 2 2 5 3 1 1 1 2 4 3 1 4 4 1 1 2 2 3 5 5 4 2 3 4 4 10 9 5 9 7 2 2 3 3 7 10 10 13 16 14
15 14 13 13 13 13 12 12 12 12 11 9 9 8 5 4 7 8 8 8 9 11 12 8 7 11 12 12 13 10 6 6 8 8 6 3 5 6 3 1 3 3 2 2 2 1 2 1 1 3 2 1 1 1 2 3 3 3 2 4 3 3 2 1 2 4 3 3 3 2 2 5 9 7 5 6 6 5 4 5 6 8 10 9 12 12 10
15 14 14 14 14 13 13 12 12 13 12 10 9 8 5 2 4 9 10 10 11 14 16 12 9 11 13 10 6 5 4 3 3 5 4 2 8 7 3 2 6 6 3 3 2 1 1 2 2 2 3 2 1 1 1 2 1 2 1 2 3 3 3 1 1 3 4 4 4 4 4 5 7 8 7 7 7 7 7 8 9 9 10 10 10 8 7
14 15 15 15 14 13 13 13 13 13 13 11 11 10 9 7 5 7 8 9 12 16 18 15 12 13 14 11 7 5 4 1 1 2 2 4 3 7 6 5 5 5 3 1 1 2 2 2 3 4 3 2 1 1 2 2 1 0 1 2 0 2 3 1 1 1 4 5 5 4 6 6 7 7 6 7 8 9 9 10 10 10 11 10 8 7 6
15 16 16 16 15 14 13 13 13 14 14 13 12 11 11 9 6 7 7 8 10 12 11 13 15 14 13 13 13 11 9 7 4 3 3 5 5 3 4 3 3 4 2 1 1 3 4 4 4 4 3 1 1 4 3 1 1 0 1 2 1 3 4 2 2 1 1 1 3 3 5 6 6 6 6 6 8 10 10 10 10 10 10 10 9 7 5
17 17 17 17 17 15 13 13 13 14 14 14 12 12 12 9 4 5 6 7 8 8 7 8 13 16 14 13 14 15 15 12 7 6 7 8 7 5 3 2 2 2 1 2 2 5 7 5 4 5 4 1 0 4 3 2 1 1 0 2 3 2 5 3 2 2 3 2 2 3 4 5 6 5 5 6 7 8 8 9 9 9 10 10 9 8 6
18 18 17 17 17 16 14 13 13 14 14 14 13 12 12 10 6 5 6 6 9 9 7 8 10 14 15 13 13 14 13 10 9 9 8 7 6 5 2 1 2 2 1 3 5 6 7 5 4 5 4 1 1 4 2 2 2 3 1 3 5 3 0 2 1 3 5 4 2 2 2 4 6 5 4 5 5 5 6 7 7 8 9 9 9 8 6
18 18 18 17 16 15 14 12 12 13 14 14 13 13 13 12 9 8 6 4 7 6 6 7 10 9 11 12 11 11 11 11 10 10 9 7 7 6 5 4 5 4 5 7 6 6 7 6 4 5 4 1 1 4 4 1 1 3 3 4 7 4 2 3 2 2 3 3 2 1 2 2 1 1 2 3 3 3 4 5 6 7 8 8 8 8 7
18 18 18 17 15 14 13 12 12 13 14 13 13 13 12 12 10 9 9 7 7 7 7 9 13 10 7 12 14 12 11 12 11 10 10 9 8 6 5 6 6 6 7 7 6 5 6 4 2 4 3 3 2 3 4 3 2 3 3 2 5 2 5 3 2 1 2 5 3 1 2 3 4 3 1 1 1 2 3 4 5 7 7 7 7 7 6
17 18 17 16 14 12 12 12 12 13 14 12 11 10 10 10 9 9 9 8 8 9 11 12 12 10 8 10 14 14 14 14 13 12 10 9 9 7 6 7 7 7 7 7 6 6 5 3 3 3 1 3 3 2 2 2 1 2 5 5 7 5 5 5 4 2 4 8 8 4 3 3 4 4 2 1 1 2 3 4 5 5 6 6 6 5 5
16 17 15 13 10 9 10 11 11 12 13 10 8 6 6 6 7 7 8 8 8 8 9 10 8 7 8 9 12 15 15 14 13 14 12 10 9 8 8 8 7 7 6 5 5 5 4 3 3 1 2 2 3 3 2 1 1 2 5 4 5 4 3 4 4 3 5 7 6 3 2 2 4 5 4 3 2 2 3 3 3 4 4 3 3 3 3
15 15 12 8 6 7 9 10 11 12 12 11 9 7 5 5 8 10 11 12 10 8 8 9 9 8 9 8 10 14 16 15 14 14 13 11 10 8 7 7 7 7 6 5 5 5 4 2 2 1 2 1 2 3 4 3 1 2 3 1 3 3 3 4 4 5 5 6 5 3 3 4 5 5 5 4 3 2 2 2 1 2 2 2 2 1 2
13 13 10 7 6 7 8 9 10 12 13 14 15 11 5 4 8 11 12 11 10 7 7 8 8 7 6 7 10 13 14 15 15 14 13 12 11 10 8 7 5 4 4 4 4 5 5 3 3 2 1 2 2 2 5 4 1 2 4 5 4 3 4 5 4 4 5 5 4 3 5 5 4 3 3 5 3 1 1 1 1 1 1 1 0 1 1
12 12 10 8 8 7 8 10 12 13 14 16 18 15 8 2 2 6 10 10 9 8 8 7 6 5 5 5 9 13 14 14 14 15 14 13 11 10 9 8 5 3 4 4 4 4 5 5 4 2 1 1 2 4 5 3 2 3 6 6 5 5 4 5 5 5 4 4 3 2 2 2 3 3 3 3 2 1 1 2 2 2 2 2 2 0 2
12 13 10 9 9 7 7 10 12 12 12 13 13 12 10 7 4 4 9 10 8 7 8 8 7 5 4 3 5 12 16 14 14 15 13 12 12 9 9 9 7 5 7 7 6 5 5 5 4 3 2 4 6 5 4 3 5 7 7 6 6 6 6 5 5 5 4 4 3 1 1 2 3 3 3 3 3 2 2 3 3 2 2 3 3 1 1
12 11 9 9 10 8 8 10 11 11 9 9 9 9 9 8 6 6 9 10 7 6 8 10 7 5 5 5 4 9 15 15 14 14 12 12 12 10 8 8 7 5 5 6 5 5 4 5 5 4 4 5 6 4 4 6 6 7 7 6 7 7 6 6 6 6 5 4 4 3 2 2 3 4 4 4 4 3 3 3 2 1 2 3 3 3 2
10 8 7 8 8 7 7 9 12 12 8 6 8 10 9 8 7 8 9 11 10 6 6 8 7 6 7 5 1 5 12 14 13 13 11 9 9 10 10 8 5 3 4 4 6 6 4 4 4 4 4 5 5 5 7 9 6 5 5 5 7 7 6 5 6 6 6 6 5 4 4 4 4 4 4 4 4 3 3 4 3 3 3 4 3 3 4
7 6 7 5 4 5 6 7 10 12 9 5 6 8 8 7 7 7 8 11 12 11 9 7 5 8 9 5 1 3 9 11 12 13 12 10 9 10 11 8 4 3 3 5 6 6 3 4 3 5 5 6 6 5 6 6 4 4 4 4 5 7 6 5 5 6 7 7 6 5 6 6 5 5 5 5 5 5 5 5 5 5 5 5 5 5 5
6 8 7 5 5 6 6 8 11 12 11 8 6 5 5 6 6 6 7 9 9 11 12 9 7 11 12 7 5 7 8 8 10 10 7 8 9 8 8 8 5 4 4 4 4 5 3 2 4 6 6 8 9 6 7 6 4 4 5 5 5 7 7 6 7 7 7 8 7 7 7 7 6 6 6 6 6 6 6 6 6 6 7 7 7 7 7
9 9 6 6 7 5 4 8 12 13 10 8 6 5 5 6 5 5 8 9 8 10 12 11 11 14 13 6 7 11 10 9 8 6 4 6 7 4 4 6 5 5 4 4 4 6 4 2 4 6 6 8 10 11 11 9 7 7 7 6 6 7 7 7 7 7 7 6 4 2 3 5 6 5 6 6 7 7 8 8 8 8 8 8 8 8 9
10 8 6 8 8 5 3 8 12 10 7 7 7 5 5 6 6 5 6 7 7 8 11 11 12 16 15 10 7 10 10 9 6 3 3 5 5 2 3 4 2 3 4 4 5 8 5 3 4 6 6 5 9 14 15 12 10 9 9 8 8 8 8 8 8 7 7 6 4 2 1 2 4 5 6 6 7 8 8 8 8 9 9 9 10 9 10
10 8 7 7 6 4 5 8 10 8 7 7 6 4 4 5 7 7 7 6 5 7 12 13 12 14 16 15 10 8 9 9 8 5 3 4 5 6 5 2 1 0 4 2 4 6 4 5 5 5 3 6 13 17 15 13 11 10 10 9 9 9 9 8 8 7 6 5 3 2 2 3 3 4 5 5 6 7 8 8 8 8 9 9 10 10 11
11 9 7 5 5 7 9 9 9 7 5 3 3 4 3 4 5 7 7 7 6 7 11 14 13 12 15 17 13 10 11 13 12 9 5 4 5 6 4 2 1 3 3 4 5 3 4 6 6 4 6 14 17 16 15 14 13 13 12 11 10 9 8 8 7 6 5 4 3 2 3 3 3 3 4 4 5 6 6 7 7 8 8 9 9 10 10
12 10 7 5 7 9 9 8 9 6 3 1 1 2 4 5 6 6 6 7 10 9 10 13 14 12 13 15 14 9 8 11 12 10 7 5 4 4 3 4 4 4 2 5 5 4 5 6 6 4 11 16 16 15 16 16 15 14 13 11 10 9 8 7 6 5 5 5 4 3 3 3 3 3 3 4 5 6 6 7 8 7 8 9 9 10 11
13 9 6 6 7 8 6 6 7 6 4 3 4 4 6 7 7 6 5 7 10 10 10 13 13 11 11 14 13 8 6 7 9 9 6 6 5 4 4 5 5 3 3 4 5 5 6 6 4 10 17 18 16 16 18 17 15 15 13 11 10 9 8 7 7 6 6 5 4 4 4 4 3 3 3 4 5 6 7 7 8 8 8 9 10 10 11
11 9 6 3 4 5 3 2 4 5 5 4 5 6 7 7 7 7 8 9 11 10 11 14 14 12 11 12 11 8 7 8 7 6 5 5 5 4 4 4 3 3 4 5 5 5 6 5 5 15 21 19 17 19 18 16 16 15 13 11 11 9 8 8 8 6 6 5 4 4 4 3 3 4 4 5 6 6 7 7 8 8 9 10 11 12 12
10 10 7 2 1 4 4 3 3 4 5 6 8 9 9 8 8 8 8 10 12 13 13 14 13 12 12 12 9 7 8 9 6 5 6 6 4 4 5 4 4 4 5 6 6 6 6 4 6 16 21 20 19 19 17 16 16 15 13 12 12 10 9 8 7 6 5 4 4 3 3 3 4 5 5 6 6 6 7 7 8 8 9 10 11 12 13
8 9 7 3 2 5 6 6 6 7 8 10 12 14 13 12 11 8 5 5 7 8 10 14 14 9 6 6 6 6 7 7 5 5 6 5 3 3 4 4 4 5 5 6 7 6 3 4 12 18 20 19 19 18 16 16 16 15 13 12 12 10 9 8 7 6 5 4 4 3 3 4 4 4 5 6 6 6 7 7 8 8 9 10 11 11 12
6 6 6 4 3 4 7 9 10 10 11 13 13 14 14 12 10 9 7 5 3 2 3 6 8 6 4 2 2 5 5 5 4 5 5 4 2 3 4 4 5 5 5 6 7 6 3 11 17 19 18 18 18 17 16 16 15 14 13 12 11 11 10 8 7 6 5 4 4 3 3 4 4 4 5 5 6 6 7 7 7 8 8 9 10 11 11
6 5 5 5 5 6 9 12 11 10 11 13 13 13 13 12 10 11 9 5 6 5 3 4 1 4 3 1 2 4 4 4 3 3 4 4 4 3 4 5 6 6 6 6 6 4 10 18 20 19 19 18 17 16 15 14 14 13 12 11 11 11 10 9 8 7 5 4 4 3 3 3 3 3 4 5 6 7 6 6 7 7 7 8 9 9 9
7 6 7 8 8 6 8 10 9 7 9 12 12 12 12 11 11 12 10 5 9 11 7 4 4 4 4 3 4 4 4 4 3 2 3 5 5 4 5 7 6 5 5 5 2 8 16 19 18 18 18 17 15 14 14 13 13 12 11 11 12 12 10 9 8 7 6 5 4 3 2 2 3 3 4 5 6 6 5 6 6 6 6 7 7 8 8
6 6 8 11 11 8 6 6 6 5 6 9 11 11 11 11 10 9 6 7 11 10 7 7 7 5 3 4 5 4 3 4 4 4 5 4 4 5 7 7 5 4 3 2 8 14 16 16 15 16 16 15 14 14 14 13 13 12 12 12 12 11 10 8 8 7 6 5 4 3 1 1 2 3 4 4 4 4 5 6 5 4 5 5 6 6 6
5 7 9 11 13 12 10 9 8 6 7 9 10 10 10 9 7 4 3 7 8 6 5 6 5 4 3 4 4 3 2 3 5 6 6 4 3 5 5 4 5 10 9 2 10 13 13 14 15 15 15 15 15 15 15 14 14 13 13 13 12 11 10 9 8 7 6 5 4 3 1 1 2 2 3 3 4 4 5 4 4 4 4 5 5 6 6
Wind_Direction
333 334 335 337 339 341 345 346 345 345 323 281 284 287 270 260 263 153 165 208 214 226 251 257 246 232 55 340 70 107 226 261 302 339 268 278 283 271 287 80 354 329 343 331 311 313 349 311 308 337 275 194 61 51 333 313 296 297 316 11 10 343 295 282 287 285 300 300 290 280 267 247 227 218 214 222 245 254 247 242 243 242 225 225 245 246 128
330 332 333 336 337 339 345 344 345 349 336 313 311 308 283 275 277 235 176 204 219 235 257 266 275 273 141 256 284 105 283 285 323 342 327 344 338 316 342 41 226 285 315 302 309 332 296 274 300 301 263 106 84 324 312 308 308 359 25 2 351 339 321 315 288 292 300 276 268 271 270 258 234 232 229 223 236 252 258 256 254 257 262 272 283 205 105
327 328 330 334 335 337 343 343 341 344 338 325 318 315 298 284 277 226 172 208 220 238 263 276 288 297 148 211 240 216 228 244 286 301 298 319 332 330 351 337 286 297 307 277 283 287 275 289 293 283 275 108 123 109 324 296 320 40 34 345 325 305 307 311 284 293 302 272 274 278 285 300 276 244 239 230 223 233 256 256 249 267 275 287 328 91 131
326 327 328 330 332 334 339 342 338 338 336 321 312 310 294 283 275 198 176 190 210 237 258 265 276 295 136 205 234 229 215 157 173 267 254 245 282 286 300 279 266 296 294 260 277 290 300 58 332 320 336 334 103 78 304 278 328 44 10 316 300 287 284 276 267 274 273 253 269 279 284 285 268 256 269 280 279 301 311 277 225 356 305 301 55 70 106
327 325 326 327 330 329 334 340 336 334 334 322 310 297 272 269 291 284 229 190 214 235 240 247 274 334 98 188 163 217 249 136 147 223 242 291 277 274 303 291 268 293 298 306 340 321 340 37 11 348 358 348 357 26 312 300 73 50 274 243 235 273 278 268 263 254 247 247 250 260 268 271 281 301 320 341 341 319 308 286 260 359 323 293 78 76 91
328 325 324 325 327 324 330 336 333 331 329 321 315 295 263 258 280 288 290 231 214 224 228 233 239 222 206 199 142 234 264 256 194 200 191 264 245 228 229 255 270 287 298 356 37 301 311 42 20 335 336 349 331 351 1 343 322 271 263 246 236 281 283 282 280 265 251 250 246 241 254 267 282 294 304 329 328 311 301 288 283 303 289 278 26 67 91
328 323 322 324 323 320 327 330 331 331 318 301 306 291 265 273 283 290 308 288 247 276 323 254 243 224 178 131 275 249 251 241 213 186 271 238 197 267 289 276 280 294 318 12 327 292 303 76 50 314 307 342 336 11 23 324 295 293 317 312 328 318 281 280 289 291 277 261 257 244 234 251 273 291 303 305 312 323 314 293 299 308 287 282 306 29 84
328 322 321 324 319 316 325 329 331 331 318 282 287 275 266 290 306 315 326 317 286 284 284 225 263 274 118 157 251 249 257 262 157 146 251 275 63 260 271 273 280 304 345 353 287 23 62 245 210 205 247 313 354 13 81 272 281 312 340 307 51 105 273 279 287 291 279 263 261 246 227 241 271 289 303 293 286 297 301 308 339 333 311 303 303 312 88
327 323 322 323 317 312 319 326 332 332 330 309 290 289 304 322 318 309 311 308 291 288 275 230 249 220 168 209 221 225 248 273 23 146 207 295 317 270 281 296 217 285 302 266 292 37 84 276 298 279 283 307 201 224 247 269 295 324 327 319 339 275 283 293 278 274 274 265 257 243 236 249 254 252 273 300 293 274 257 33 24 353 327 314 302 301 90
324 325 322 320 315 309 313 322 329 330 330 312 293 318 348 342 324 310 298 280 275 276 258 242 239 226 243 220 169 204 231 192 111 211 195 270 276 301 346 345 279 256 263 261 358 28 356 316 330 318 295 297 273 265 282 283 288 316 321 316 307 284 290 294 282 285 283 272 266 252 243 243 244 260 333 2 341 310 314 65 47 7 335 316 304 348 18
321 324 321 319 313 302 306 319 323 324 330 320 302 338 357 345 331 324 303 276 271 258 237 233 224 238 288 242 165 220 251 145 111 256 253 258 236 213 331 312 287 289 3 42 22 352 317 307 307 295 284 279 273 277 286 275 253 231 283 284 297 305 300 290 277 274 269 274 282 265 242 236 241 336 342 16 17 346 346 64 66 27 350 342 20 14 354
317 321 319 318 311 298 299 308 313 316 322 323 314 332 349 340 330 317 290 265 268 260 245 248 243 233 242 229 200 225 254 214 148 201 261 310 97 159 266 256 248 324 31 7 324 307 292 276 262 267 273 271 271 276 277 266 231 194 265 294 329 312 293 290 282 270 271 272 251 237 231 229 189 16 354 21 26 339 346 86 78 46 13 359 18 18 355
312 317 317 316 308 296 291 293 301 301 294 306 301 284 320 338 334 316 296 279 268 266 271 277 263 243 221 229 232 225 236 227 116 163 273 296 281 243 256 227 231 8 15 308 299 306 289 274 251 254 267 268 267 272 270 262 242 233 259 290 339 310 300 305 294 280 291 272 245 237 157 161 193 128 30 14 348 316 333 73 55 30 15 1 8 9 1
309 313 314 314 308 294 285 284 290 288 277 289 294 282 329 346 330 321 316 293 268 278 286 289 279 261 233 241 254 238 215 162 109 230 262 265 244 237 218 203 266 328 331 275 288 285 270 271 251 236 233 236 243 255 281 274 255 248 265 289 315 295 304 309 286 229 290 281 266 259 139 161 142 67 31 4 1 348 334 16 48 19 14 17 3 350 7
306 309 310 312 306 291 280 278 279 279 273 275 282 280 340 333 309 312 319 301 291 291 277 269 285 287 260 233 243 250 226 161 171 236 235 230 245 236 135 206 268 281 268 255 256 253 260 269 263 252 225 211 212 151 268 287 250 216 251 297 280 263 274 307 310 285 263 293 288 274 235 193 37 13 348 339 350 349 318 275 64 14 12 21 3 341 10
305 306 307 309 305 291 276 273 272 272 267 265 272 269 275 294 285 292 305 291 281 285 268 267 293 302 285 240 229 240 249 226 211 224 200 214 245 236 190 229 260 240 233 237 243 259 266 261 262 278 268 147 93 118 267 305 279 184 185 212 241 251 239 239 268 257 225 217 260 284 285 154 360 324 317 328 341 339 318 270 221 2 359 359 357 358 15
304 304 304 306 307 298 280 268 266 267 263 258 262 258 247 268 278 289 302 285 269 271 276 285 302 299 282 249 225 225 238 251 255 252 231 222 236 226 187 188 219 231 232 237 239 244 256 254 253 269 266 103 50 322 264 286 276 216 191 215 230 248 234 224 241 251 254 239 202 229 2 38 343 316 308 330 345 338 309 263 346 355 347 345 354 16 28
303 302 302 306 309 304 288 268 262 262 259 255 256 258 262 275 279 284 297 290 281 270 269 275 284 278 281 317 309 252 222 203 203 243 243 217 222 224 195 187 208 206 205 237 247 238 247 258 262 270 299 83 47 283 274 272 248 198 279 273 262 264 260 252 252 254 268 265 212 111 108 338 327 322 329 340 335 315 292 277 325 337 339 346 3 27 45
303 301 302 304 304 302 290 271 262 258 255 254 252 252 260 275 277 285 297 290 283 274 271 275 278 274 284 308 308 284 222 187 202 232 233 194 214 233 231 232 236 213 200 232 250 253 254 258 274 269 235 167 211 218 211 265 286 351 300 294 294 286 296 322 319 313 305 281 224 120 116 16 332 324 358 358 334 281 48 324 291 332 350 9 28 38 51
302 303 303 301 298 299 293 275 263 257 253 251 248 244 249 272 281 283 288 293 296 286 277 277 284 280 272 270 275 280 260 208 225 237 242 202 225 243 239 219 230 225 218 232 246 262 267 284 297 273 257 115 19 305 237 240 238 297 307 307 328 302 311 350 352 351 344 337 17 92 113 30 345 328 9 23 12 67 61 326 331 19 12 20 45 49 53
303 305 305 303 299 299 295 279 263 255 252 246 244 243 238 274 300 294 278 284 296 283 269 276 311 303 283 265 261 264 259 242 233 239 245 188 194 240 268 196 217 235 246 265 272 278 294 315 255 260 277 99 165 234 265 240 188 159 291 306 326 342 349 14 11 7 2 5 34 65 107 47 19 15 53 61 54 67 48 7 22 34 25 36 56 54 53
304 306 305 304 301 296 293 285 267 254 249 241 237 233 203 176 309 296 278 273 277 272 268 275 297 297 288 285 275 248 241 257 237 242 270 208 186 210 251 232 232 254 320 356 317 257 288 299 280 273 273 246 206 169 277 284 210 147 175 265 293 341 23 72 5 6 37 56 65 91 100 76 60 59 65 69 62 53 44 39 38 30 31 52 64 50 49
302 304 302 301 299 293 290 287 271 253 245 239 233 226 206 191 230 271 278 283 284 282 279 274 270 273 273 266 255 229 208 204 165 189 287 314 209 202 216 223 237 260 283 342 322 280 280 293 298 299 284 272 341 323 240 253 289 200 306 312 309 78 76 129 219 35 56 36 25 77 97 86 82 76 63 53 49 43 39 40 40 30 31 50 63 44 48
300 299 297 296 295 288 283 283 272 251 240 236 230 226 221 217 238 282 296 292 283 283 282 263 248 252 256 244 233 225 219 228 237 196 233 295 304 245 225 251 314 301 258 106 333 280 272 282 286 286 290 339 340 276 256 278 34 88 13 343 28 46 19 314 238 195 164 308 342 64 90 74 69 77 74 60 46 40 37 37 37 31 31 48 67 58 52
298 297 296 294 291 284 277 276 267 248 236 234 231 229 224 214 225 277 283 289 289 287 289 267 242 238 245 240 225 219 220 222 221 210 221 250 272 281 280 299 317 321 61 52 302 245 245 263 271 269 281 359 293 280 301 18 11 285 101 208 213 11 5 318 288 26 86 108 26 40 80 66 43 39 50 52 42 36 37 38 38 35 34 49 69 69 67
297 298 297 295 291 282 272 269 262 245 232 230 231 230 224 213 208 224 241 289 305 287 273 282 263 238 232 230 218 210 210 206 199 207 221 231 238 252 286 266 228 233 249 276 269 248 246 259 270 272 277 118 144 282 303 107 189 244 236 170 169 151 76 237 240 65 97 110 39 16 125 80 37 28 38 45 40 37 37 37 41 44 42 48 62 67 72
297 300 299 296 291 277 263 259 256 242 230 227 229 229 226 222 221 220 220 265 299 272 241 272 282 250 217 214 215 207 203 204 203 205 217 227 226 222 219 216 220 227 234 239 244 250 255 256 256 269 280 79 89 278 273 200 253 271 252 167 152 166 254 253 200 130 122 119 30 34 138 138 19 51 78 52 39 41 39 38 45 50 49 49 55 64 72
297 300 301 299 290 271 254 250 247 235 227 225 226 227 227 225 222 222 222 232 257 272 286 300 300 289 244 220 220 212 204 208 212 210 211 214 212 205 198 205 214 216 215 217 222 237 246 254 287 291 310 15 357 257 240 248 294 301 297 96 109 70 351 18 97 124 127 142 161 210 192 185 190 184 152 53 27 49 68 66 53 49 50 48 48 55 65
297 299 302 302 290 263 243 239 235 225 219 220 224 229 233 231 228 228 232 238 250 270 290 297 288 277 262 236 222 212 207 210 216 220 215 201 198 203 196 195 213 224 218 215 233 250 250 270 304 294 355 12 338 287 236 251 246 282 320 17 69 67 32 56 86 103 128 145 163 198 224 184 168 169 159 133 74 58 81 83 59 46 46 48 50 51 50
298 301 304 302 283 249 231 228 221 212 211 210 210 220 232 229 223 225 232 237 243 258 279 287 273 252 252 241 218 208 209 209 213 221 219 203 198 204 194 190 212 235 233 220 236 258 257 243 255 259 88 51 310 288 273 286 108 249 291 340 70 93 80 84 98 114 131 144 153 169 206 183 166 177 174 134 97 78 90 87 66 57 48 37 49 50 31
296 301 301 290 257 231 223 217 210 206 203 194 195 213 228 198 192 203 215 223 228 241 261 269 275 279 271 243 215 211 213 209 210 219 221 210 202 199 192 193 203 215 227 227 225 246 259 221 194 154 86 145 248 279 279 265 185 194 236 206 118 128 129 116 114 121 141 162 165 167 204 202 189 194 183 143 107 82 93 104 107 93 58 28 48 51 15
294 298 290 260 237 233 223 212 207 206 201 196 200 207 203 163 186 206 215 215 216 231 250 252 257 271 264 228 216 221 219 208 208 219 221 211 201 194 192 201 204 204 231 245 227 231 251 238 201 196 158 160 188 270 278 266 246 197 198 178 159 166 153 139 139 135 139 160 179 205 221 205 175 150 144 138 131 74 81 103 125 118 60 10 143 89 27
292 298 283 242 225 228 224 215 212 208 206 208 209 207 202 190 204 209 204 200 205 225 243 250 250 249 245 228 216 216 215 207 206 216 217 203 191 188 193 204 213 209 216 230 232 226 232 233 219 201 135 160 230 261 269 252 161 181 201 188 171 177 173 157 158 159 153 160 190 238 245 164 129 116 133 157 182 226 282 290 282 276 285 282 258 220 53
284 293 279 236 215 221 226 218 212 209 211 218 222 222 227 244 259 211 195 197 212 233 236 243 257 252 236 231 203 201 207 209 205 209 205 185 177 189 198 196 202 208 203 209 226 229 219 222 219 184 177 215 226 239 263 242 187 184 194 187 175 180 180 169 169 173 170 168 178 201 70 118 148 171 183 200 223 238 255 265 265 269 296 305 300 295 35
284 285 261 217 207 221 230 218 208 202 206 218 226 233 243 249 245 219 199 197 211 234 224 224 241 251 233 233 204 187 199 209 211 208 197 176 176 196 205 191 190 195 186 193 227 242 223 216 225 225 219 220 214 214 256 257 223 188 180 181 182 183 185 182 182 181 179 179 186 191 182 179 195 202 204 217 231 235 242 249 249 255 282 297 306 306 314
284 267 221 203 210 224 225 212 198 189 193 214 221 225 241 249 234 217 209 207 218 246 244 222 222 229 229 240 240 188 201 211 210 201 186 168 177 205 216 209 195 171 160 190 233 241 198 166 202 237 237 230 224 213 225 236 221 171 164 179 181 182 191 195 190 186 186 189 196 206 210 211 214 213 217 227 229 229 242 257 263 265 263 267 277 282 287
262 212 185 182 194 203 206 204 195 189 189 199 208 216 234 241 223 215 224 226 229 245 259 258 246 233 227 220 132 201 214 211 204 196 188 180 185 198 209 211 191 151 177 212 237 240 188 147 198 244 245 244 247 215 187 190 178 161 178 190 175 176 188 194 192 194 193 191 196 206 213 220 224 223 227 232 230 230 242 252 259 269 272 272 272 274 276
212 185 171 166 183 194 190 189 195 197 193 185 190 212 223 218 213 218 225 225 225 230 238 251 259 249 243 230 186 199 216 213 202 196 193 197 196 190 198 206 187 165 197 229 229 225 213 187 235 250 249 244 239 203 159 157 166 178 194 196 180 182 188 190 195 200 197 196 203 208 210 218 225 226 232 241 244 248 255 258 261 268 271 273 279 282 280
195 183 177 187 207 215 191 183 195 203 199 188 195 213 205 197 210 222 211 209 214 216 218 229 240 244 249 244 189 195 216 227 212 182 176 220 225 204 203 214 185 166 217 248 191 181 195 244 241 241 252 243 215 181 166 175 186 185 190 190 183 184 187 187 195 205 206 214 234 233 208 219 231 234 241 252 254 257 261 262 263 267 270 271 275 277 275
189 186 193 206 218 229 205 186 189 194 194 190 198 215 212 206 216 219 203 205 216 214 212 221 229 231 239 247 216 196 207 227 228 191 179 219 221 186 209 234 175 157 228 245 164 163 193 244 229 231 257 242 179 159 159 170 174 174 181 183 179 181 185 188 194 201 207 226 262 300 248 242 252 251 254 259 260 261 266 266 266 268 268 269 270 270 270
183 185 197 210 211 192 168 166 167 174 189 197 199 212 222 219 228 232 220 212 218 215 211 214 218 220 226 233 227 198 191 204 218 228 231 218 197 191 203 224 57 200 251 232 153 168 216 243 232 230 214 156 146 146 150 158 161 165 169 170 171 178 183 187 192 197 201 215 238 253 256 264 262 252 254 259 261 263 266 267 268 269 267 266 269 270 270
184 183 187 192 174 155 154 159 166 176 190 199 208 227 225 212 227 236 227 222 231 219 204 206 213 215 213 215 214 200 186 188 194 204 213 214 217 222 213 145 139 240 227 163 147 178 222 232 240 231 142 136 140 144 147 152 157 160 161 161 169 178 183 188 196 199 201 210 217 223 233 243 246 250 254 256 260 264 268 269 270 272 271 271 274 275 275
182 176 174 176 170 162 164 178 186 187 184 168 190 234 232 212 213 219 215 224 237 228 196 194 206 209 204 206 206 192 174 184 199 207 202 184 199 233 226 189 205 233 186 154 173 211 223 232 244 182 138 139 144 149 152 155 158 158 158 164 173 177 181 190 195 189 186 193 196 200 215 228 240 250 259 264 269 272 274 274 276 278 278 278 278 278 279
181 182 183 181 174 166 168 186 191 191 203 203 191 208 221 213 208 213 206 209 219 216 193 188 198 200 191 192 193 177 157 185 211 215 199 177 183 213 223 207 208 208 182 196 223 229 227 238 212 147 144 150 155 156 157 159 159 158 159 167 175 176 178 182 184 181 181 187 194 209 227 237 245 254 269 283 285 283 282 282 282 283 283 283 283 283 284
184 194 191 165 161 169 173 185 190 200 218 216 205 218 226 212 207 217 214 202 204 205 193 190 198 199 186 182 187 186 181 189 201 205 195 193 200 210 214 218 217 207 211 231 239 227 230 241 169 146 151 158 160 159 160 160 159 160 164 170 174 176 178 178 179 181 187 196 208 221 231 246 268 276 281 286 285 285 285 284 284 286 287 286 286 286 285
192 196 181 130 149 204 201 194 192 204 218 218 216 223 230 228 229 232 215 199 202 205 194 188 196 199 186 179 184 192 189 187 190 198 204 210 216 210 210 223 232 223 224 235 234 232 247 251 155 149 154 156 154 155 159 161 160 162 168 173 175 176 176 177 182 186 191 200 212 219 231 259 274 276 280 284 284 284 285 285 286 289 289 286 286 287 285
203 201 188 177 207 208 208 217 221 220 223 227 227 227 228 235 248 257 241 206 208 210 197 190 191 188 171 169 184 194 191 189 191 195 198 205 219 216 214 221 225 224 228 233 234 241 248 130 132 142 149 151 151 156 162 162 161 163 168 172 175 177 175 175 180 184 186 196 210 220 236 255 260 263 274 283 285 288 291 290 288 287 286 283 284 285 284
212 208 199 201 203 200 209 223 231 231 230 233 236 234 233 238 248 251 244 226 206 233 244 208 180 150 98 80 180 187 188 198 205 198 194 200 212 211 212 224 234 232 226 229 240 244 161 128 134 141 146 149 154 160 164 163 162 164 168 170 173 175 175 176 178 179 181 191 207 219 228 241 252 262 271 281 289 292 292 291 290 288 288 288 286 285 286
224 223 221 228 232 227 222 224 231 239 238 237 238 236 234 235 235 235 236 211 158 170 254 303 62 125 127 177 209 194 190 201 211 202 199 210 218 206 204 221 231 226 220 233 245 198 137 136 141 145 149 154 159 163 164 163 162 164 170 174 175 173 171 172 174 176 181 187 194 202 216 232 253 271 275 279 287 289 287 290 292 290 289 292 291 289 292
232 236 238 235 235 233 225 221 223 230 233 235 237 233 229 230 231 231 228 183 137 144 167 212 217 187 170 185 209 210 195 192 199 205 214 220 223 220 223 231 235 228 231 245 215 127 130 139 147 148 150 155 160 160 159 160 162 166 171 173 171 169 169 171 174 176 177 177 180 192 219 241 259 274 277 279 284 286 289 296 297 292 292 296 296 295 299
231 238 243 239 239 247 258 254 249 244 238 240 242 237 231 231 235 232 207 153 137 141 159 190 202 193 169 186 209 212 178 171 189 210 218 219 225 231 233 235 242 255 256 170 124 125 132 143 149 149 151 155 158 157 157 158 159 162 164 163 161 162 166 168 170 172 171 173 181 193 213 244 257 266 277 284 289 292 295 299 300 297 298 303 304 302 302
230 240 246 242 239 246 260 269 272 269 256 245 240 239 238 234 229 212 125 117 133 163 194 198 191 186 187 199 207 196 159 175 207 218 214 212 238 247 240 245 280 286 282 210 140 144 150 152 150 151 155 157 156 154 155 156 156 157 160 160 159 163 165 165 166 170 170 173 184 187 180 239 267 269 276 284 288 292 297 301 308 311 308 308 312 310 304